Change the Weather History Date:

Wednesday, June 4, 2014

  Actual Average Record
Temperature  
Mean Temperature 70 °F -  
Max Temperature 81 °F 72 °F 84 °F (1997)
Min Temperature 60 °F 52 °F 42 °F (1998)
Cooling Degree Days 6    
Growing Degree Days 20 (Base 50)    
Moisture  
Dew Point 55 °F    
Average Humidity 60    
Maximum Humidity 86    
Minimum Humidity 36    
Precipitation  
Precipitation 0.00 in - - ()
Sea Level Pressure  
Sea Level Pressure 29.86 in    
Wind  
Wind Speed 3 mph (East)    
Max Wind Speed 9 mph    
Max Gust Speed -    
Visibility 10 miles    
Events      
Averages and records for this station are not official NWS values.
T = Trace of Precipitation, MM = Missing Value Source: NWS Daily Summary

Daily Weather History Graph

Daily Weather History Graph

Search for Another Location

Airport or City:

Trip Planner

Search our weather history database for the weather conditions in past years. The results will help you decide how hot, cold, wet, or windy it might be!

Date:

Astronomy

Jun. 04, 2014 Rise Set
Actual Time 5:27 AM CDT 8:54 PM CDT
Civil Twilight 4:51 AM CDT 9:30 PM CDT
Nautical Twilight 4:03 AM CDT 10:18 PM CDT
Astronomical Twilight 3:01 AM CDT 11:20 PM CDT
Moon 11:59 AM CDT (6/4) 12:42 AM CDT (6/4)
Length of Visible Light 16h 39m
Length of Day
15h 26m
Waxing Crescent, 39% of the Moon is Illuminated
Jun 4
Waxing Crescent
Jun 5
First Quarter
Jun 12
Full
Jun 19
Last Quarter
Jun 27
New

Hourly Weather History & Observations

Time (CDT) Temp. Dew Point Humidity Pressure Visibility Wind Dir Wind Speed Gust Speed Precip Events Conditions
12:53 AM 63.0 °F 55.9 °F 78% 29.83 in 10.0 mi Calm Calm - N/A   Clear
1:53 AM 60.1 °F 55.9 °F 86% 29.83 in 10.0 mi SSE 3.5 mph - N/A   Clear
2:53 AM 62.1 °F 55.9 °F 80% 29.83 in 10.0 mi Calm Calm - N/A   Clear
3:53 AM 61.0 °F 55.9 °F 83% 29.84 in 10.0 mi Calm Calm - N/A   Partly Cloudy
4:53 AM 62.1 °F 55.0 °F 78% 29.84 in 10.0 mi Calm Calm - N/A   Scattered Clouds
5:53 AM 61.0 °F 54.0 °F 78% 29.86 in 10.0 mi NW 3.5 mph - N/A   Clear
6:53 AM 62.1 °F 55.0 °F 78% 29.86 in 10.0 mi Calm Calm - N/A   Clear
7:53 AM 68.0 °F 55.0 °F 63% 29.86 in 10.0 mi NE 8.1 mph - N/A   Clear
8:53 AM 71.1 °F 55.9 °F 59% 29.86 in 10.0 mi ENE 5.8 mph - N/A   Clear
9:53 AM 73.0 °F 55.0 °F 53% 29.87 in 10.0 mi ENE 9.2 mph - N/A   Clear
10:53 AM 75.0 °F 53.1 °F 46% 29.88 in 10.0 mi ENE 6.9 mph - N/A   Clear
11:53 AM 75.9 °F 52.0 °F 43% 29.88 in 10.0 mi SW 3.5 mph - N/A   Partly Cloudy
12:53 PM 77.0 °F 53.1 °F 43% 29.88 in 10.0 mi Variable 4.6 mph - N/A   Scattered Clouds
1:53 PM 78.1 °F 53.1 °F 42% 29.87 in 10.0 mi South 5.8 mph - N/A   Scattered Clouds
2:53 PM 77.0 °F 52.0 °F 42% 29.87 in 10.0 mi SE 3.5 mph - N/A   Mostly Cloudy
3:53 PM 79.0 °F 53.1 °F 40% 29.86 in 10.0 mi North 4.6 mph - N/A   Mostly Cloudy
4:53 PM 81.0 °F 52.0 °F 36% 29.85 in 10.0 mi Variable 6.9 mph - N/A   Mostly Cloudy
5:53 PM 75.0 °F 54.0 °F 48% 29.85 in 10.0 mi SSE 3.5 mph - N/A   Partly Cloudy
6:53 PM 77.0 °F 53.1 °F 43% 29.85 in 10.0 mi ENE 4.6 mph - N/A   Scattered Clouds
7:53 PM 75.9 °F 53.1 °F 45% 29.85 in 10.0 mi ENE 3.5 mph - N/A   Overcast
8:53 PM 72.0 °F 59.0 °F 64% 29.85 in 10.0 mi Calm Calm - N/A   Scattered Clouds
9:53 PM 69.8 °F 55.4 °F 60% 29.88 in 10.0 mi Calm Calm - N/A   Mostly Cloudy
10:53 PM 69.1 °F 59.0 °F 70% 29.88 in 10.0 mi Calm Calm - N/A   Overcast
11:53 PM 66.0 °F 57.9 °F 75% 29.88 in 10.0 mi Calm Calm - N/A   Scattered Clouds